TimeCST,TemperatureF,Dew PointF,Humidity,Sea Level PressureIn,VisibilityMPH,Wind Direction,Wind SpeedMPH,Gust SpeedMPH,PrecipitationIn,Events,Conditions,WindDirDegrees,DateUTC
12:52 AM,21.0,14.0,74,30.19,7.0,SE,20.7,26.5,N/A,,Overcast,130,2014-02-17 06:52:00
1:52 AM,21.0,14.0,74,30.19,7.0,SE,13.8,-,N/A,,Overcast,130,2014-02-17 07:52:00
2:52 AM,21.0,14.0,74,30.14,7.0,SE,17.3,-,N/A,,Overcast,130,2014-02-17 08:52:00
3:52 AM,21.0,15.1,78,30.09,6.0,SE,18.4,27.6,N/A,,Haze,130,2014-02-17 09:52:00
4:52 AM,21.0,15.1,78,30.04,7.0,ESE,16.1,-,N/A,,Overcast,120,2014-02-17 10:52:00
5:29 AM,21.2,15.8,80,30.02,6.0,SE,18.4,-,0.00,Rain,Light Freezing Rain,140,2014-02-17 11:29:00
5:47 AM,21.2,15.8,80,29.97,6.0,ESE,19.6,-,0.00,,Haze,110,2014-02-17 11:47:00
5:52 AM,21.9,16.0,78,30.02,6.0,SE,20.7,28.8,0.00,,Haze,140,2014-02-17 11:52:00
6:52 AM,21.9,17.1,82,29.99,6.0,SE,19.6,-,N/A,,Haze,130,2014-02-17 12:52:00
7:26 AM,21.2,17.6,86,29.92,2.5,SE,27.6,35.7,N/A,,Haze,130,2014-02-17 13:26:00
7:36 AM,21.2,17.6,86,29.92,0.8,SE,27.6,35.7,0.00,Snow,Light Snow,140,2014-02-17 13:36:00
7:41 AM,21.2,17.6,86,29.93,0.2,SE,28.8,35.7,0.00,Fog-Snow,Heavy Snow,140,2014-02-17 13:41:00
7:52 AM,21.9,19.0,89,29.95,0.2,SE,24.2,-,0.00,Fog-Snow,Heavy Snow,130,2014-02-17 13:52:00
7:59 AM,21.2,19.4,93,29.90,0.2,SE,25.3,-,0.00,Fog-Snow,Heavy Snow,130,2014-02-17 13:59:00
8:14 AM,21.2,19.4,93,29.88,0.2,SE,25.3,31.1,0.00,Fog-Snow,Snow,130,2014-02-17 14:14:00
8:30 AM,21.2,19.4,93,29.87,0.2,SE,27.6,33.4,0.00,Fog-Snow,Snow,130,2014-02-17 14:30:00
8:47 AM,21.2,19.4,93,29.86,0.5,SE,23.0,-,0.00,Fog-Snow,Light Snow,130,2014-02-17 14:47:00
8:52 AM,21.9,19.0,89,29.90,0.8,SE,23.0,31.1,0.00,Snow,Light Snow,130,2014-02-17 14:52:00
8:55 AM,21.2,19.4,93,29.86,0.8,SE,26.5,31.1,0.00,Snow,Light Snow,130,2014-02-17 14:55:00
9:05 AM,21.2,19.4,93,29.86,1.2,SE,21.9,-,0.00,Snow,Light Snow,140,2014-02-17 15:05:00
9:50 AM,23.0,19.4,86,29.84,0.8,SE,18.4,27.6,0.01,Snow,Light Snow,140,2014-02-17 15:50:00
9:52 AM,23.0,19.9,88,29.88,0.8,SSE,20.7,-,0.01,Snow,Light Snow,150,2014-02-17 15:52:00
10:07 AM,23.0,21.2,93,29.84,0.8,SSE,19.6,-,0.00,Snow,Light Snow,150,2014-02-17 16:07:00
10:16 AM,23.0,19.4,86,29.83,0.5,SE,18.4,25.3,0.00,Fog-Snow,Snow,140,2014-02-17 16:16:00
10:24 AM,23.0,21.2,93,29.83,0.2,SSE,12.7,-,0.00,Fog-Snow,Heavy Snow,150,2014-02-17 16:24:00
10:52 AM,24.1,21.0,88,29.86,0.2,SSE,8.1,-,0.02,Fog-Snow,Heavy Snow,160,2014-02-17 16:52:00
11:34 AM,24.8,21.2,86,29.80,0.2,SE,9.2,-,0.03,Fog-Snow,Snow,140,2014-02-17 17:34:00
11:52 AM,24.1,23.0,96,29.82,0.2,SSE,8.1,-,0.06,Fog-Snow,Heavy Snow,150,2014-02-17 17:52:00
12:10 PM,24.8,24.8,100,29.79,0.5,South,5.8,-,0.02,Fog-Snow,Snow,170,2014-02-17 18:10:00
12:24 PM,24.8,24.8,100,29.78,0.2,South,3.5,-,0.04,Fog-Snow,Snow,180,2014-02-17 18:24:00
12:49 PM,26.6,24.8,93,29.77,0.8,South,3.5,-,0.05,Snow,Light Snow,180,2014-02-17 18:49:00
12:52 PM,26.1,24.1,92,29.80,1.0,Calm,Calm,-,0.05,Snow,Light Snow,0,2014-02-17 18:52:00
1:08 PM,26.6,24.8,93,29.76,0.5,Calm,Calm,-,0.01,Fog-Snow,Light Snow,0,2014-02-17 19:08:00
1:25 PM,26.6,24.8,93,29.75,0.8,SW,4.6,-,0.01,Snow,Light Snow,220,2014-02-17 19:25:00
1:32 PM,26.6,24.8,93,29.75,0.8,SW,4.6,-,0.01,Snow,Light Snow,220,2014-02-17 19:32:00
1:36 PM,26.6,24.8,93,29.74,1.0,Calm,Calm,-,0.02,Snow,Light Snow,0,2014-02-17 19:36:00
1:52 PM,27.0,25.0,92,29.77,1.5,WSW,6.9,-,0.02,Snow,Light Snow,240,2014-02-17 19:52:00
2:00 PM,26.6,24.8,93,29.73,2.0,WSW,6.9,-,0.00,Snow,Light Snow,240,2014-02-17 20:00:00
2:05 PM,28.4,24.8,86,29.73,3.0,SW,8.1,-,0.00,Snow,Light Snow,230,2014-02-17 20:05:00
2:19 PM,28.4,24.8,86,29.74,4.0,WSW,12.7,-,0.00,,Overcast,250,2014-02-17 20:19:00
2:52 PM,28.9,26.1,89,29.76,4.0,West,16.1,-,0.00,,Overcast,260,2014-02-17 20:52:00
3:17 PM,30.2,26.6,86,29.73,3.0,West,18.4,-,N/A,,Overcast,260,2014-02-17 21:17:00
3:52 PM,30.0,26.1,85,29.77,3.0,West,16.1,-,N/A,,Overcast,270,2014-02-17 21:52:00
4:52 PM,32.0,27.0,82,29.77,4.0,West,16.1,-,N/A,,Haze,260,2014-02-17 22:52:00
5:17 PM,30.2,26.6,86,29.75,3.0,West,18.4,-,N/A,,Scattered Clouds,260,2014-02-17 23:17:00
5:52 PM,28.9,26.1,89,29.80,3.0,WSW,16.1,-,N/A,,Clear,250,2014-02-17 23:52:00
6:52 PM,30.0,25.0,82,29.82,9.0,West,19.6,-,N/A,,Clear,280,2014-02-18 00:52:00
7:52 PM,30.9,25.0,79,29.85,10.0,West,18.4,-,N/A,,Clear,270,2014-02-18 01:52:00
8:52 PM,28.9,24.1,82,29.87,10.0,West,17.3,-,N/A,,Clear,270,2014-02-18 02:52:00
9:52 PM,28.0,23.0,81,29.90,10.0,West,15.0,-,N/A,,Clear,270,2014-02-18 03:52:00
10:52 PM,21.9,18.0,85,29.91,10.0,West,11.5,-,N/A,,Clear,270,2014-02-18 04:52:00
11:52 PM,26.1,21.0,81,29.93,10.0,West,16.1,-,N/A,,Clear,260,2014-02-18 05:52:00